Theta_e
316 314 309 311 319 320 324 325 326 324 331 333 332 332 332 344 349 350 349 347 352 357 357 356 356 355 355 354 354 355 354 354
311 313 317 317 320 324 324 327 327 331 328 335 339 335 336 345 349 347 347 349 354 357 357 356 354 354 355 353 354 355 354 353
310 311 319 321 324 325 319 323 324 332 328 331 339 340 338 346 346 345 347 347 351 356 356 356 354 353 353 355 355 355 354 353
307 311 318 322 326 322 321 323 325 327 330 330 339 336 337 343 343 349 347 346 349 355 355 356 355 354 355 356 355 356 355 355
310 311 315 319 327 325 323 320 323 334 328 329 331 336 340 342 343 350 346 346 348 349 352 355 355 355 355 356 356 356 356 356
312 311 312 321 323 327 327 322 329 331 327 326 332 337 339 340 341 347 345 344 344 347 346 349 350 354 354 355 356 355 355 354
310 312 314 320 319 326 331 324 327 328 335 336 337 336 335 335 338 342 344 343 342 342 343 343 344 351 354 354 354 354 353 354
316 318 316 317 317 323 326 324 324 328 337 338 337 334 331 332 334 336 342 342 342 342 343 342 343 350 351 351 351 352 350 352
316 321 319 318 317 325 321 319 325 326 334 337 334 333 330 331 334 335 338 342 342 345 347 342 344 347 347 348 348 349 351 352
317 320 319 316 320 318 320 322 328 329 334 337 334 331 330 330 332 334 336 341 343 346 348 349 349 345 346 345 346 347 350 356
318 319 319 319 317 317 323 327 329 332 331 336 335 334 333 334 335 338 337 340 342 348 352 360 351 348 348 348 347 349 352 354
316 316 318 316 316 318 319 325 328 332 333 336 333 334 335 333 335 342 340 341 342 347 355 352 357 357 356 355 353 356 353 353
313 314 316 318 313 314 321 321 320 323 328 333 334 333 333 335 339 343 345 344 348 349 354 357 357 362 357 355 350 352 356 358
310 313 315 315 308 316 321 320 319 321 325 329 332 331 334 336 341 344 344 349 350 344 353 356 355 356 354 354 352 352 353 356
305 311 312 312 309 316 319 320 319 320 322 325 329 333 336 336 341 345 350 354 351 350 351 353 359 354 355 355 353 353 358 356
304 309 310 308 310 315 317 318 319 318 320 322 325 330 335 337 340 347 350 356 354 354 358 355 356 355 351 351 351 355 357 358
307 310 308 308 308 311 314 315 316 318 320 321 322 326 335 337 342 345 348 354 356 356 360 355 351 348 347 344 347 347 355 360
306 309 308 307 306 310 312 313 316 317 319 320 322 324 328 337 340 345 347 351 353 356 360 357 353 351 349 347 347 349 350 356
303 307 309 306 304 307 310 313 314 317 319 320 322 323 327 332 339 346 348 349 353 354 358 360 357 356 356 354 355 349 351 359
306 304 299 307 296 307 310 310 313 314 316 317 319 322 324 328 336 342 349 352 352 354 355 359 362 355 353 348 343 348 353 357
Wind_Speed
8 7 8 10 12 21 25 10 8 6 16 10 11 17 15 21 25 21 17 16 14 15 14 14 15 14 13 12 12 11 12 11
12 16 24 10 16 15 21 10 7 15 15 10 14 16 17 23 23 20 19 17 15 15 14 14 15 14 12 13 12 11 11 11
17 19 13 18 32 21 13 14 12 21 13 10 9 18 18 21 18 19 19 16 15 15 14 14 15 14 13 13 12 12 11 11
16 14 16 19 25 28 18 31 5 21 18 12 16 18 18 19 17 22 19 16 15 15 14 13 13 13 12 12 12 11 11 10
22 11 5 7 22 24 20 15 11 23 18 14 16 17 17 16 17 22 19 17 14 13 13 14 13 12 12 12 11 11 10 9
20 16 3 4 1 5 13 6 22 5 10 17 19 18 16 17 18 21 18 16 15 13 14 12 12 14 13 12 11 10 10 10
22 16 3 3 5 4 23 20 28 8 17 21 21 20 17 16 17 17 18 17 16 15 14 13 13 12 12 13 12 11 10 10
22 11 12 7 6 4 4 11 18 14 22 21 21 18 18 17 15 17 20 19 16 16 15 14 12 12 10 10 8 8 9 9
24 12 7 9 10 14 19 26 6 19 21 20 19 16 17 17 17 16 16 14 18 15 14 16 13 9 6 7 7 8 11 9
23 1 8 10 15 14 11 9 17 19 9 20 19 16 16 16 16 17 16 15 16 17 11 10 12 10 10 9 8 7 8 9
20 20 2 12 13 16 24 17 30 18 29 18 16 16 14 13 13 13 15 14 15 16 9 5 13 9 8 8 8 9 8 8
16 20 17 12 14 16 12 12 20 32 32 18 17 17 13 13 12 9 12 14 13 16 11 9 5 6 4 4 6 4 6 8
14 21 18 16 18 15 10 14 19 8 11 19 15 16 13 13 11 9 8 13 10 14 14 9 7 4 4 5 5 4 3 6
16 18 21 14 17 18 16 14 8 9 11 16 18 17 15 14 12 11 10 12 12 13 16 12 10 7 5 4 5 6 5 6
18 20 20 20 22 20 16 16 14 10 12 15 17 16 16 16 15 13 10 11 12 12 18 16 10 8 7 7 5 5 5 6
12 14 16 22 21 20 16 19 14 13 11 10 13 21 17 18 18 17 13 10 12 10 10 16 9 7 8 6 6 4 5 5
13 10 7 9 8 11 12 18 19 12 14 12 13 11 20 19 19 20 19 15 13 12 10 13 11 11 10 10 8 8 5 7
14 13 11 11 10 12 16 19 18 18 13 13 13 15 10 18 16 21 22 21 18 14 11 12 11 11 9 9 9 8 7 8
14 14 8 6 14 17 19 18 18 18 17 16 11 12 11 9 21 20 21 21 21 21 18 13 13 9 7 6 5 9 8 7
9 9 9 13 13 16 10 19 19 17 16 16 15 13 14 10 9 20 22 23 24 24 23 19 15 14 14 12 11 9 8 8
Wind_Direction
228 119 151 233 60 304 308 119 124 101 59 52 106 115 138 118 117 123 137 131 132 139 138 135 134 135 134 134 135 138 135 130
252 181 201 131 64 316 298 138 95 125 95 76 97 125 121 127 125 143 130 126 137 139 140 141 140 141 140 141 142 140 139 135
268 265 103 150 145 198 16 296 103 95 88 96 101 104 147 127 142 140 123 129 141 142 145 145 145 146 148 150 147 147 146 146
267 277 137 170 141 123 143 268 129 111 102 103 112 138 145 139 157 125 125 141 142 147 148 148 150 152 155 152 153 152 152 155
285 313 317 47 149 164 162 12 100 105 113 126 139 142 147 153 148 122 134 132 144 150 152 153 154 157 160 157 160 159 159 161
283 284 123 338 346 79 80 34 305 50 133 150 140 150 155 162 146 131 143 146 151 150 156 160 161 164 166 166 166 164 173 170
268 296 139 139 224 223 137 155 236 69 117 134 146 155 163 159 154 147 149 155 158 161 163 169 159 167 169 171 173 178 183 186
270 305 359 26 353 330 108 196 122 107 110 132 151 163 167 166 163 162 155 161 161 166 166 169 158 151 175 177 182 192 190 182
267 319 315 343 315 62 89 279 100 144 140 149 159 171 175 172 172 169 172 161 163 165 170 169 151 161 180 177 187 197 195 173
273 269 318 292 290 115 115 242 63 13 281 156 165 174 182 180 176 174 173 165 160 152 173 181 141 169 187 181 187 187 194 187
262 276 236 276 286 288 191 160 108 101 268 168 167 178 187 180 171 173 166 164 165 144 158 210 149 172 192 189 180 186 171 175
265 275 245 252 266 251 256 157 145 175 210 169 177 179 185 175 161 166 166 158 172 153 154 198 179 170 194 177 168 170 162 168
232 254 264 252 254 264 263 256 225 146 191 162 183 182 185 173 162 169 165 159 164 158 158 191 187 213 177 170 206 179 180 161
253 246 257 266 259 245 244 262 213 203 208 174 172 189 182 180 167 166 174 159 167 174 165 184 179 194 195 206 186 175 192 161
246 245 216 223 246 258 274 244 245 204 216 199 179 185 181 180 170 169 176 163 172 181 169 176 181 182 213 210 181 209 181 170
244 268 214 219 228 240 241 273 267 203 240 240 206 182 183 184 173 165 177 178 179 182 173 166 186 186 198 217 186 216 190 187
322 355 301 313 294 283 279 270 273 230 203 231 269 257 183 185 179 169 172 170 187 193 187 166 180 191 193 203 186 202 199 188
283 284 285 283 279 269 277 281 271 274 243 212 237 245 243 190 188 176 174 176 175 191 195 185 186 189 202 190 191 190 201 182
286 298 304 274 268 256 251 257 257 269 281 284 262 266 266 213 190 179 179 181 178 183 190 199 191 182 198 191 197 189 194 165
295 299 270 265 269 258 255 225 231 238 245 260 262 271 280 267 212 190 185 185 187 184 186 187 192 191 195 200 197 192 184 168